Lid_Strength_Index
12 15 17 14 14 13 12 14 14 13 13 14 14 14 12 11 12 12 12 11 10 10 10 10 9 8 6 5 9 8 7 8 10 10 10 10 10 9 8 8 8 8 8 7
13 16 13 12 12 13 14 15 15 12 13 14 14 14 11 11 11 11 11 11 11 11 11 11 11 11 7 6 8 9 8 8 10 10 9 9 9 9 9 8 8 8 8 8
14 12 11 12 12 13 14 16 16 15 14 14 16 16 14 12 11 10 10 11 11 11 11 11 11 11 9 8 8 8 9 9 9 9 9 9 9 9 9 9 9 8 8 8
13 11 12 13 12 12 15 12 12 13 16 19 16 20 15 12 13 12 11 13 13 12 11 11 11 11 9 9 10 10 10 11 10 9 9 10 10 11 10 10 9 9 9 9
13 13 14 14 13 11 14 13 13 14 17 18 17 21 16 12 13 13 12 12 12 12 11 12 11 10 9 10 11 10 10 9 9 9 9 10 10 10 10 10 10 10 10 10
11 10 13 13 13 13 12 14 15 16 18 24 18 18 16 14 12 11 11 12 12 12 12 11 10 10 11 10 10 10 10 10 9 9 9 10 10 10 11 11 11 11 11 10
12 12 12 12 15 13 13 15 19 20 24 21 16 19 15 12 12 12 12 13 13 12 12 12 11 11 11 11 10 10 10 10 10 10 10 10 11 11 11 11 12 12 12 11
16 17 12 12 13 15 15 15 18 23 22 20 18 20 16 13 13 13 12 13 13 13 12 12 12 11 11 11 10 10 11 11 10 10 11 11 11 11 11 11 11 11 12 12
16 16 12 12 12 12 14 17 13 17 19 20 18 17 14 14 15 14 13 13 13 13 12 12 11 11 11 11 11 10 11 11 11 10 11 11 11 11 11 11 11 12 11 11
13 17 12 12 12 12 13 13 18 17 22 23 19 18 16 16 15 14 14 13 13 12 12 11 11 11 11 11 10 10 10 11 11 11 11 11 11 11 11 11 11 11 11 11
10 13 15 13 15 15 15 16 15 14 16 21 22 19 14 15 13 14 14 13 13 12 12 11 11 11 11 11 11 11 11 11 11 11 11 11 11 11 11 11 11 11 11 11
10 13 17 15 11 12 13 14 14 18 19 17 17 19 12 13 12 12 13 12 12 12 12 12 11 11 12 12 11 11 12 11 11 11 11 11 11 11 11 11 11 11 11 11
10 14 18 16 14 13 14 13 13 14 15 18 19 18 12 12 13 12 13 13 12 12 12 12 12 12 12 12 11 11 12 11 11 11 11 11 11 11 11 11 11 11 11 11
9 13 16 18 15 14 15 13 13 14 17 18 17 17 13 13 13 13 12 13 13 12 12 12 12 12 12 12 12 12 11 11 11 11 11 11 11 11 11 11 11 11 10 10
11 14 13 14 13 13 14 14 14 14 14 17 16 15 13 11 12 11 12 11 12 12 12 12 12 12 12 12 11 11 11 11 11 12 12 11 10 10 11 11 10 10 10 10
11 16 15 17 15 14 15 14 14 14 14 13 14 15 11 10 11 12 11 12 13 12 12 12 11 11 12 11 11 11 11 11 11 12 11 11 11 11 10 9 9 10 10 10
13 15 15 19 15 16 19 16 14 14 13 12 15 13 10 11 11 11 12 11 12 12 12 12 12 12 11 11 10 11 11 11 12 12 11 10 10 10 9 9 9 10 11 11
15 15 14 17 18 24 15 12 12 12 12 10 11 11 10 11 11 10 10 10 11 11 10 11 11 11 10 10 11 11 11 11 12 12 10 10 10 10 10 10 11 11 11 12
9 13 18 18 19 16 14 13 13 13 14 10 10 9 10 9 11 11 10 8 9 10 10 9 9 10 10 10 10 11 12 11 11 11 10 11 11 11 11 12 11 12 12 11
9 10 13 20 24 27 15 12 10 9 16 10 10 10 10 10 14 13 9 9 9 12 12 10 10 10 10 11 10 10 10 10 11 12 11 11 11 12 13 12 11 11 11 11
20 19 19 17 18 15 11 10 9 17 15 11 10 10 11 12 11 9 8 9 11 11 12 11 10 10 9 9 9 9 9 10 10 11 12 12 12 13 13 12 11 11 11 11
16 20 22 22 24 22 10 11 14 10 10 10 10 9 9 10 9 9 9 9 9 12 13 13 12 11 11 9 9 10 11 10 11 12 12 13 14 13 12 11 11 11 11 11
17 13 17 15 14 9 8 9 8 9 9 9 8 8 8 9 9 9 9 9 9 9 10 12 12 13 12 10 9 10 9 10 12 12 13 14 14 13 12 12 12 12 12 14
10 9 12 11 10 9 9 8 8 8 8 6 8 7 8 9 8 8 9 9 10 10 10 12 11 13 13 12 10 9 11 11 11 12 13 13 14 14 14 13 13 14 15 16
10 9 11 11 9 8 8 7 7 7 7 8 8 7 7 8 8 8 8 9 9 10 10 11 11 11 12 11 12 12 12 11 12 12 12 12 13 13 13 13 13 12 13 12
8 10 11 12 8 8 8 6 6 7 8 8 8 8 7 7 8 8 8 8 9 9 10 11 12 12 12 12 12 12 12 11 11 11 12 12 12 13 13 13 14 9 9 9